Flag for U.S.A. Weather past 2 weeks in Cleveland, Ohio, U.S.A.

Now
76 °F

Overcast.


Feels Like: 77 °F
Forecast: 66 / 79 °F
Wind: 6 mph from Southwest

Location: Lorain County Regional Airport

Current Time: Jul 23, 2014 at 4:57:38 AM

Latest Report: Jul 23, 2014 at 3:53 AM


Visibility: 8 mi

Pressure: 29.94 "Hg

Humidity: 74%

Dew point: 67 °F

Location of ClevelandLocation

Historic Weather in Cleveland — Graph

°F

Cleveland temperature yesterday

Maximum temperature yesterday: 88 °F (at 12:53 PM)
Minimum temperature yesterday: 66 °F (at 3:53 AM)
Average temperature yesterday: 76 °F

Past Weeks' High & Low Weather Summary

 TemperatureHumidityPressure
High88 °F (Jul 12, 2:53 PM)90% (Jul 20, 3:53 AM)30.25 "Hg (Jul 20, 3:53 AM)
Low54 °F (Jul 18, 5:53 AM)27% (Jul 17, 5:53 PM)29.64 "Hg (Jul 8, 10:53 AM)
Average72 °F67%30.01 "Hg
* Reported Jul 8 1:53 AM — Jul 23 1:53 AM, Cleveland, Weather by CustomWeather, © 2014

Note: Actual official high and low records may vary slightly from our data, if they occured in-between our weather recording intervals... More about our weather records

Advertising

Cleveland weather history for previous 24 hours

 ConditionsComfort  
Time TempWeatherWind HumidityBarometerVisibility
1:53 AM
Jul 23
75 °FPassing clouds.7 mph79%29.97 "Hg8 mi
12:53 AM75 °FClear.6 mph76%29.98 "Hg9 mi
11:53 PM
Jul 22
77 °FClear.6 mph74%29.97 "Hg10 mi
10:53 PM78 °FClear.7 mph71%29.97 "Hg10 mi
9:53 PM81 °FSunny.7 mph62%29.98 "Hg10 mi
8:53 PM84 °FSunny.6 mph57%29.98 "Hg10 mi
7:53 PM87 °FSunny.8 mph51%29.98 "Hg10 mi
12:53 PM88 °FScattered clouds.10 mph48%30.06 "Hg10 mi
11:53 AM87 °FBroken clouds.13 mph51%30.07 "Hg10 mi
10:53 AM85 °FSunny.6 mph59%30.10 "Hg10 mi
9:53 AM81 °FSunny.6 mph65%30.11 "Hg10 mi
8:53 AM76 °FSunny.5 mph72%30.13 "Hg8 mi
7:53 AM72 °FSunny.5 mph76%30.13 "Hg7 mi
6:53 AM67 °FClear.No wind79%30.12 "Hg8 mi
5:53 AM67 °FClear.No wind76%30.11 "Hg10 mi
4:53 AM66 °FClear.No wind78%30.11 "Hg10 mi
Weather by CustomWeather, © 2014

See weather overviewHow to use our weather pages